Weather History for KCWV - November, 2013

Change the Weather History Date:

Wednesday, November 20, 2013

  Actual Average (KSAV) Record (KSAV)
Temperature  
Mean Temperature 52 °F 58 °F  
Max Temperature 59 °F 69 °F 83 °F (1942)
Min Temperature 46 °F 47 °F 24 °F (1914)
Degree Days  
Heating Degree Days 12 8  
Month to date heating degree days 117  
Since 1 July heating degree days 174  
Cooling Degree Days 0 1  
Month to date cooling degree days 30  
Year to date cooling degree days 2442  
Growing Degree Days 2 (Base 50)    
Moisture  
Dew Point 43 °F    
Average Humidity 66    
Maximum Humidity 81    
Minimum Humidity 58    
Precipitation  
Precipitation 0.00 in 0.08 in 1.90 in (1894)
Month to date precipitation 1.58  
Year to date precipitation 44.22  
Sea Level Pressure  
Sea Level Pressure 30.24 in    
Wind  
Wind Speed 8 mph (NE)    
Max Wind Speed 14 mph    
Max Gust Speed 20 mph    
Visibility 10 miles    
Events      
T = Trace of Precipitation, MM = Missing Value Source: NWS Daily Summary

Daily Weather History Graph

Daily Weather History Graph

Search for Another Location

Airport or City:

Trip Planner

Search our weather history database for the weather conditions in past years. The results will help you decide how hot, cold, wet, or windy it might be!

Date:

Astronomy

Nov. 20, 2013 Rise Set
Actual Time 7:01 AM EST 5:24 PM EST
Civil Twilight 6:34 AM EST 5:51 PM EST
Nautical Twilight 6:05 AM EST 6:20 PM EST
Astronomical Twilight 5:35 AM EST 6:50 PM EST
Moon 8:06 PM EST (11/20) 9:25 AM EST (11/20)
Length of Visible Light 11h 16m
Length of Day
10h 23m
Waning Gibbous, 91% of the Moon is Illuminated
Nov 20
Waning Gibbous
Nov 25
Last Quarter
Dec 2
New
Dec 9
First Quarter
Dec 17
Full

Hourly Weather History & Observations

Time (EST) Temp. Windchill Dew Point Humidity Pressure Visibility Wind Dir Wind Speed Gust Speed Precip Events Conditions
12:15 AM 46.4 °F 44.3 °F 41.0 °F 81% 30.15 in 10.0 mi ENE 4.6 mph - N/A   Clear
12:35 AM 46.4 °F 45.2 °F 39.2 °F 76% 30.16 in 10.0 mi NE 3.5 mph - N/A   Clear
12:55 AM 50.0 °F - 39.2 °F 66% 30.16 in 10.0 mi NE 4.6 mph - N/A   Clear
1:15 AM 50.0 °F - 37.4 °F 62% 30.15 in 10.0 mi NE 6.9 mph - N/A   Clear
1:35 AM 50.0 °F - 39.2 °F 66% 30.15 in 10.0 mi ENE 9.2 mph - N/A   Clear
1:55 AM 50.0 °F - 37.4 °F 62% 30.15 in 10.0 mi NE 9.2 mph - N/A   Clear
2:15 AM 51.8 °F - 37.4 °F 58% 30.16 in 10.0 mi ENE 11.5 mph 17.3 mph N/A   Scattered Clouds
2:35 AM 51.8 °F - 37.4 °F 58% 30.17 in 10.0 mi ENE 11.5 mph 16.1 mph N/A   Mostly Cloudy
2:55 AM 51.8 °F - 37.4 °F 58% 30.16 in 10.0 mi ENE 9.2 mph 17.3 mph N/A   Scattered Clouds
3:15 AM 50.0 °F - 37.4 °F 62% 30.17 in 10.0 mi ENE 6.9 mph - N/A   Scattered Clouds
3:35 AM 50.0 °F - 37.4 °F 62% 30.17 in 10.0 mi ENE 8.1 mph - N/A   Scattered Clouds
3:55 AM 50.0 °F - 39.2 °F 66% 30.17 in 10.0 mi ENE 8.1 mph - N/A   Scattered Clouds
4:15 AM 50.0 °F - 39.2 °F 66% 30.18 in 10.0 mi NE 5.8 mph - N/A   Scattered Clouds
4:35 AM 50.0 °F - 41.0 °F 71% 30.18 in 10.0 mi NE 5.8 mph - N/A   Mostly Cloudy
4:55 AM 50.0 °F - 41.0 °F 71% 30.18 in 10.0 mi ENE 9.2 mph - N/A   Mostly Cloudy
5:15 AM 50.0 °F - 41.0 °F 71% 30.20 in 10.0 mi NE 6.9 mph - N/A   Mostly Cloudy
5:35 AM 50.0 °F - 41.0 °F 71% 30.19 in 10.0 mi ENE 9.2 mph - N/A   Mostly Cloudy
5:55 AM 50.0 °F - 41.0 °F 71% 30.20 in 10.0 mi NE 6.9 mph - N/A   Scattered Clouds
6:15 AM 50.0 °F - 41.0 °F 71% 30.20 in 10.0 mi ENE 10.4 mph - N/A   Clear
6:35 AM 50.0 °F - 41.0 °F 71% 30.20 in 10.0 mi NE 9.2 mph - N/A   Mostly Cloudy
6:55 AM 50.0 °F - 41.0 °F 71% 30.21 in 10.0 mi NE 6.9 mph - N/A   Scattered Clouds
7:15 AM 50.0 °F - 41.0 °F 71% 30.21 in 10.0 mi NE 5.8 mph - N/A   Scattered Clouds
7:35 AM 50.0 °F - 41.0 °F 71% 30.21 in 10.0 mi NE 9.2 mph 16.1 mph N/A   Scattered Clouds
7:55 AM 50.0 °F - 41.0 °F 71% 30.23 in 10.0 mi NE 9.2 mph - N/A   Scattered Clouds
8:15 AM 51.8 °F - 41.0 °F 67% 30.23 in 10.0 mi ENE 12.7 mph 17.3 mph N/A   Scattered Clouds
8:35 AM 51.8 °F - 41.0 °F 67% 30.25 in 10.0 mi NE 13.8 mph 17.3 mph N/A   Scattered Clouds
8:55 AM 51.8 °F - 39.2 °F 62% 30.25 in 10.0 mi NE 10.4 mph 19.6 mph N/A   Mostly Cloudy
9:15 AM 51.8 °F - 39.2 °F 62% 30.26 in 10.0 mi NE 11.5 mph 17.3 mph N/A   Scattered Clouds
9:35 AM 53.6 °F - 39.2 °F 58% 30.26 in 10.0 mi ENE 10.4 mph 18.4 mph N/A   Scattered Clouds
9:55 AM 53.6 °F - 39.2 °F 58% 30.27 in 10.0 mi NE 8.1 mph 16.1 mph N/A   Mostly Cloudy
10:15 AM 53.6 °F - 41.0 °F 62% 30.27 in 10.0 mi NE 11.5 mph 17.3 mph N/A   Mostly Cloudy
10:35 AM 55.4 °F - 41.0 °F 58% 30.27 in 10.0 mi ENE 12.7 mph - N/A   Mostly Cloudy
10:55 AM 55.4 °F - 41.0 °F 58% 30.27 in 10.0 mi NE 10.4 mph 16.1 mph N/A   Mostly Cloudy
11:15 AM 55.4 °F - 42.8 °F 63% 30.27 in 10.0 mi NE 10.4 mph - N/A   Overcast
11:35 AM 55.4 °F - 42.8 °F 63% 30.26 in 10.0 mi NE 11.5 mph 16.1 mph N/A   Overcast
11:55 AM 55.4 °F - 42.8 °F 63% 30.26 in 10.0 mi NNE 8.1 mph 18.4 mph N/A   Overcast
12:15 PM 55.4 °F - 42.8 °F 63% 30.25 in 10.0 mi ENE 11.5 mph - N/A   Overcast
12:35 PM 55.4 °F - 44.6 °F 67% 30.24 in 10.0 mi NNE 9.2 mph - N/A   Overcast
12:55 PM 57.2 °F - 44.6 °F 63% 30.24 in 10.0 mi NE 9.2 mph - N/A   Overcast
1:15 PM 59.0 °F - 44.6 °F 59% 30.24 in 10.0 mi NNE 8.1 mph - N/A   Overcast
1:35 PM 59.0 °F - 44.6 °F 59% 30.23 in 10.0 mi NE 9.2 mph - N/A   Overcast
1:55 PM 59.0 °F - 46.4 °F 63% 30.23 in 10.0 mi ENE 9.2 mph - N/A   Overcast
2:15 PM 59.0 °F - 44.6 °F 59% 30.23 in 10.0 mi NNE 9.2 mph - N/A   Overcast
2:35 PM 59.0 °F - 44.6 °F 59% 30.22 in 10.0 mi North 6.9 mph - N/A   Overcast
2:55 PM 59.0 °F - 46.4 °F 63% 30.22 in 10.0 mi NNE 4.6 mph - N/A   Overcast
3:15 PM 59.0 °F - 46.4 °F 63% 30.22 in 10.0 mi NNE 4.6 mph - N/A   Overcast
3:35 PM 59.0 °F - 46.4 °F 63% 30.23 in 10.0 mi ENE 6.9 mph - N/A   Overcast
3:55 PM 59.0 °F - 46.4 °F 63% 30.23 in 10.0 mi NE 6.9 mph - N/A   Overcast
4:15 PM 59.0 °F - 46.4 °F 63% 30.23 in 10.0 mi NE 10.4 mph - N/A   Overcast
4:35 PM 59.0 °F - 46.4 °F 63% 30.23 in 10.0 mi NE 3.5 mph - N/A   Overcast
4:55 PM 59.0 °F - 46.4 °F 63% 30.24 in 10.0 mi NE 5.8 mph - N/A   Overcast
5:15 PM 59.0 °F - 46.4 °F 63% 30.24 in 10.0 mi NE 10.4 mph - N/A   Overcast
5:35 PM 59.0 °F - 46.4 °F 63% 30.24 in 10.0 mi ENE 9.2 mph - N/A   Overcast
5:55 PM 59.0 °F - 46.4 °F 63% 30.25 in 10.0 mi ENE 8.1 mph - N/A   Overcast
6:15 PM 57.2 °F - 46.4 °F 67% 30.26 in 10.0 mi ENE 10.4 mph - N/A   Overcast
6:35 PM 57.2 °F - 46.4 °F 67% 30.27 in 10.0 mi NE 8.1 mph - N/A   Overcast
6:55 PM 57.2 °F - 46.4 °F 67% 30.27 in 10.0 mi NE 9.2 mph - N/A   Overcast
7:15 PM 57.2 °F - 46.4 °F 67% 30.28 in 10.0 mi ENE 11.5 mph - N/A   Overcast
7:35 PM 55.4 °F - 46.4 °F 72% 30.29 in 10.0 mi NE 10.4 mph 16.1 mph N/A   Overcast
7:55 PM 55.4 °F - 46.4 °F 72% 30.30 in 10.0 mi ENE 9.2 mph - N/A   Overcast
8:15 PM 55.4 °F - 46.4 °F 72% 30.30 in 10.0 mi ENE 9.2 mph - N/A   Overcast
8:35 PM 55.4 °F - 46.4 °F 72% 30.30 in 10.0 mi ENE 9.2 mph 16.1 mph N/A   Overcast
8:55 PM 55.4 °F - 46.4 °F 72% 30.30 in 10.0 mi NE 9.2 mph - N/A   Overcast
9:15 PM 55.4 °F - 46.4 °F 72% 30.29 in 10.0 mi ENE 8.1 mph 16.1 mph N/A   Overcast
9:35 PM 55.4 °F - 46.4 °F 72% 30.30 in 10.0 mi ENE 9.2 mph - N/A   Mostly Cloudy
9:55 PM 55.4 °F - 46.4 °F 72% 30.30 in 10.0 mi ENE 9.2 mph - N/A   Mostly Cloudy
10:15 PM 55.4 °F - 46.4 °F 72% 30.31 in 10.0 mi NE 5.8 mph - N/A   Overcast
10:35 PM 55.4 °F - 46.4 °F 72% 30.31 in 10.0 mi NE 9.2 mph - N/A   Overcast
10:55 PM 55.4 °F - 46.4 °F 72% 30.31 in 10.0 mi ENE 8.1 mph - N/A   Overcast
11:15 PM 55.4 °F - 46.4 °F 72% 30.31 in 10.0 mi ENE 8.1 mph - N/A   Overcast
11:35 PM 55.4 °F - 46.4 °F 72% 30.30 in 10.0 mi ENE 8.1 mph - N/A   Overcast
11:55 PM 55.4 °F - 46.4 °F 72% 30.29 in 10.0 mi ENE 9.2 mph - N/A   Overcast